Reflectivity
-20 -20 -20 -20 -20 -20 -20 -20 -20 -20 -20 -20 -20 -6 -20 -20 -20 -9 2 11 -20 -17 -10 4 12 10 3 -3 -20 -14 -4 -11 -0 -17 -20 5 -10 -16 -20 -20 -20 -20 -20 -20 -20 -20 6 5 11
-20 -20 -20 -20 -20 -20 -20 -20 -20 -20 -20 -20 -20 -19 -20 -13 -16 5 14 -20 -14 -3 4 -5 -11 -20 -20 -20 -20 -20 1 -20 -6 -6 -20 5 -12 -20 -20 -20 -20 -20 -20 -20 -20 -20 -20 -20 -11
-20 -20 -20 -20 -20 -20 -20 -20 -20 -20 -20 -20 -20 -20 -20 -13 -2 -8 -20 -20 1 2 10 -20 -20 -20 -20 -20 -20 -20 -20 -20 -3 -2 -20 -20 3 -20 -20 -20 -20 -20 -20 -20 -20 -20 -19 1 -18
-20 -20 -20 -20 -20 -20 -20 -20 -20 -20 -20 -20 -20 -20 -20 -20 -4 -10 -10 -3 -14 6 -20 -20 -20 -20 -20 -20 -20 -20 -20 -20 -20 -20 -20 -2 1 -20 -20 -20 -20 -20 -20 -20 13 -20 -20 -20 13
-20 -20 -20 -20 -20 -20 -20 -20 -20 -20 -20 -20 -20 -16 -16 -20 -17 6 7 10 9 -20 -20 -20 -20 -20 -20 -20 -20 -20 -20 -20 -20 -20 -20 -20 -20 -20 -20 -20 -20 -20 -20 -20 -20 -20 -20 -20 -20
-20 -20 -20 -20 -20 -20 -20 -20 -20 -20 -20 -20 -20 -20 11 4 1 4 13 12 7 -20 -20 -20 -20 -20 -20 -20 -20 -20 -20 -20 -20 -20 -20 -20 -20 -20 -20 -20 -20 -20 -20 -20 -20 -20 -20 -20 -20
-20 -20 -20 -20 -20 -20 -20 -20 -20 -20 -20 -20 -20 -20 -14 10 6 4 7 -5 -20 -20 -20 -20 -20 -20 -20 -20 -20 -20 -20 -20 -20 -20 -20 -20 -20 -20 -20 -20 -20 -20 -20 -20 -20 -20 -20 -20 -20
-20 -20 -20 -20 -20 -20 -20 -20 -20 -20 -20 -20 -20 -20 7 1 6 6 3 -14 -20 -20 -20 -20 -20 -20 -20 -20 -20 -20 -20 -20 -20 -20 -20 -20 -20 -20 -20 -20 -20 -20 -20 -20 -20 -20 -20 -20 -20
-20 -20 -20 -20 -20 -20 -20 -20 -20 -20 -20 -20 -20 -20 -20 -2 1 1 7 -20 -10 -20 -20 -20 -20 -20 -20 -20 -20 -20 -20 -20 -20 -20 -20 -20 -20 -20 -20 -20 -20 -20 -20 -20 -20 -20 -20 -20 -20
-20 -20 -20 -20 -20 -20 -20 -20 -20 -20 -20 -20 -19 -20 -20 -20 -20 -20 -20 -6 -20 -11 -17 -20 -20 -20 -20 -20 -20 -20 -20 -20 -20 -20 -20 -20 -20 -20 -20 -20 -20 -20 -20 -20 -20 -20 -20 -20 -20
-20 -20 -20 -20 -20 -20 -20 -20 -20 -20 -20 -20 -17 -5 -20 -20 -20 -20 6 7 3 2 8 -20 -17 -20 -20 -20 -20 -20 -20 -20 -20 -20 -20 -20 -20 -20 -20 -20 -20 -20 -20 -20 -20 -20 -20 -20 -20
-20 -7 -18 -20 -20 -8 -20 -20 -20 -20 -20 -20 -20 -20 -20 -20 -20 -20 11 12 12 10 12 -2 -17 -20 -4 -15 -1 -20 -20 -20 -20 -20 -20 -20 -20 -20 -20 -20 -20 -20 -20 -20 -20 -20 -20 -20 -20
-20 -20 -20 -20 -20 -20 -20 -11 -13 -20 -20 -20 -20 -20 -20 -20 -4 2 11 -18 -15 -20 -20 -20 -20 -20 -20 -20 -9 -20 -20 -20 -20 -20 -20 -20 -20 -20 -20 -20 -20 -20 -20 -20 -20 -20 -20 -20 -20
-20 -20 -20 -20 -20 -20 -20 -18 -18 -20 -20 -20 -20 -20 -20 -20 -20 -9 -16 -5 -18 -20 -20 -20 -20 -20 -20 -20 -20 -20 -20 -20 -20 -20 -20 -20 -13 -20 -20 -20 -20 -20 -20 -20 -20 -20 -20 -20 -20
-20 -20 -20 -20 -20 -20 -20 -20 -20 -20 -20 -20 -20 -20 -20 3 6 -17 1 -20 -20 -20 -20 -20 -20 -20 -20 -20 -20 -20 -20 -20 -20 -20 -20 -20 -20 -20 -20 -20 -20 -20 -20 -20 -20 -8 -13 -20 -20
-20 -20 -20 -20 -20 -20 -20 -20 -20 -20 -20 -20 -20 -20 -20 -20 -20 -20 -20 -20 -20 -20 -20 -20 -20 -20 -20 -20 -20 -20 -20 -20 -20 -20 -20 -20 -19 -20 -11 -18 -20 -20 -20 -20 -20 -20 -20 11 3
-20 -20 -20 -20 -20 -20 -20 -20 -20 -20 -20 -20 -20 -20 -20 -20 -20 -20 -20 -20 -20 -20 -20 -20 -20 -20 -20 -20 -20 -20 -20 -20 -20 -20 -20 5 -12 -3 -18 21 -6 20 25 -0 -20 7 -14 -20 -20
-20 -20 -20 -20 -20 -20 -20 -20 -20 -20 -20 -20 -20 -20 -20 -20 -20 -20 -20 -20 -20 -20 -20 -20 -20 -20 -20 -20 -20 -20 -20 -20 -20 -20 -20 -20 -20 -20 7 3 -20 -0 22 21 16 22 14 3 -5
-20 -20 -20 -20 -20 -20 -20 -20 -20 -20 -20 -20 -20 -20 -20 -20 -20 -20 -20 -20 -20 -20 -20 -20 -20 -20 -20 -20 -20 -20 -20 -20 -20 -20 -20 -20 -20 -20 -20 -20 -20 -20 -20 -20 -6 7 8 23 15
-20 -20 -20 -20 -20 -20 -20 -20 -20 -20 -20 -20 -20 -20 -20 -20 -20 -20 -20 -20 -20 -20 -20 -20 -20 -20 -20 -20 -20 -20 -20 -20 -20 -20 -20 -20 -20 -20 -20 -20 -20 -20 -20 -20 -20 -20 -20 -20 4
-20 -20 -20 -20 -16 -16 -20 -20 -20 -20 -20 -20 -20 -20 -20 -20 -20 -20 -20 -20 -20 -20 -20 -20 -20 -20 -20 -20 -20 -20 -20 -20 -20 -20 -20 -20 -20 -20 -20 -20 -20 -20 -20 -20 -20 -20 -20 -20 -20
-20 -20 -20 -20 -20 10 -12 -20 -20 -20 -20 -20 -20 -20 -20 -20 -20 -20 -20 -20 -20 -20 -20 -20 -20 -20 -20 -20 -20 -20 -20 -20 -20 -20 -20 -20 -20 -20 -20 -20 -20 -20 -20 -20 -20 -20 -20 -20 -20
-20 -20 -20 -20 -20 -20 -14 -5 -20 -20 -20 -20 -20 -20 -20 -20 -20 -20 -20 -20 -20 -20 -20 -20 -20 -20 -20 -20 -20 -20 -20 -20 -20 -20 -20 -20 -20 -20 -20 -20 -20 -20 -20 -20 -20 -19 3 -5 -18
-20 -20 -20 -20 -20 -20 -20 -15 -20 -20 -14 -18 -20 -20 -20 -20 -20 -20 -20 -20 -20 -20 -20 -20 -20 -20 -20 -20 -20 -20 -20 -20 -20 -20 -20 -20 -20 -20 -20 -20 -20 -20 -20 -20 -20 -20 -20 -20 4
-20 -20 -20 -20 -20 -20 -20 -20 -20 -20 -20 22 24 4 12 -20 -20 -20 -20 -20 -20 -20 -20 -20 -20 -20 -20 -20 -20 -20 -20 -20 -20 -20 -20 -20 -20 -20 -20 -20 -20 -20 -20 -20 -20 -20 -20 -20 -20
-20 -20 -20 -20 -20 -20 -20 -20 -20 8 18 29 40 36 18 14 -20 -20 -20 -20 -20 -20 -20 -20 -20 -20 -20 -20 -20 -20 -20 -20 -20 -20 -20 -20 -20 -20 -20 -20 -20 -20 -20 -20 -20 -20 -20 -20 -20
-20 -20 -20 -20 -20 -20 -20 -20 -20 -20 -20 -9 15 -16 -7 -20 -20 -20 -20 -20 -20 -20 -20 -20 -20 -20 -20 -20 -20 -20 -20 -20 -20 -20 -20 -20 -20 -20 -20 -20 -20 -20 -20 -20 -20 -20 -20 -19 -20
-20 -20 -20 -20 -6 -10 -20 -15 -20 -20 -10 13 28 26 -11 -16 -17 -20 -20 -20 -20 -20 -20 -20 -20 -20 -20 -20 -20 -20 -20 -20 -20 -20 -20 -20 -20 -20 -20 -20 -20 -20 -20 -20 -20 -20 -20 -20 -20
-20 -20 -20 -20 -2 3 10 -10 -20 -20 -6 -7 -4 14 -16 -17 -8 -20 -20 -20 -20 -20 -20 -20 -20 -20 -20 -20 -20 -20 -20 -20 -20 -20 -20 -20 -20 -20 -20 -20 -20 -20 -20 -20 -20 -20 -20 -20 -20
-20 -20 7 -20 -20 14 3 20 -11 21 24 26 19 -20 -20 -20 -20 -20 -20 -20 -20 -20 -20 -20 -20 -20 -20 -20 -20 -20 -20 -20 -20 -20 -20 -20 -11 -20 -20 -20 -20 -20 -20 -20 -20 -20 -20 -20 -20
Wind_Speed
5 4 1 4 5 5 3 6 2 5 6 5 14 15 14 7 5 9 6 10 10 8 6 8 12 14 14 13 12 11 10 10 10 9 9 9 9 9 9 9 9 8 9 8 7 10 6 5 6
2 4 4 2 5 3 6 4 5 5 11 16 14 10 9 10 6 10 7 8 9 9 7 7 13 13 13 13 11 10 10 9 9 9 8 7 9 8 8 8 8 7 8 8 6 9 6 6 8
2 2 4 4 3 4 4 2 8 7 10 3 7 8 5 5 9 4 9 9 9 8 7 8 12 12 11 11 10 10 9 9 7 7 7 6 9 8 6 7 7 7 7 7 6 6 10 9 4
2 5 4 4 3 9 3 8 18 13 7 12 12 11 6 7 5 8 11 11 10 8 7 9 11 11 10 10 9 9 9 7 7 7 6 6 7 6 5 5 6 6 6 6 5 4 7 9 9
3 3 3 2 4 7 5 4 4 8 7 5 3 8 7 4 15 14 13 11 10 7 6 7 10 10 9 8 8 8 7 6 6 5 5 4 5 5 4 3 3 4 4 4 3 3 4 5 5
4 3 3 2 5 6 6 5 18 15 12 14 12 9 5 11 12 11 10 10 10 9 6 5 10 10 9 8 7 7 7 6 5 4 4 3 3 3 2 2 2 3 3 3 2 3 3 4 4
5 3 3 3 5 3 2 4 9 11 9 7 13 7 8 8 9 10 10 8 7 7 6 5 4 6 8 7 7 7 7 7 5 4 3 2 2 2 2 2 1 1 2 2 2 4 5 5 6
4 4 3 4 3 3 6 2 3 8 5 3 8 8 9 9 12 9 8 8 7 6 6 6 4 4 3 4 7 7 7 7 7 5 5 4 3 3 3 4 3 2 1 1 2 5 6 7 8
4 2 3 3 2 4 3 1 6 9 8 6 4 5 17 16 11 9 8 5 5 5 6 5 6 5 5 4 5 7 7 8 8 8 8 6 2 3 5 6 7 5 4 4 4 5 6 7 8
5 4 1 2 7 5 3 3 6 4 5 12 13 15 16 14 8 9 7 7 5 6 7 7 6 7 6 5 5 3 3 3 3 4 4 3 3 4 6 9 11 8 6 6 6 6 7 7 3
4 6 5 1 6 10 6 6 3 10 6 4 16 16 12 8 7 8 8 10 12 11 8 10 7 5 5 3 2 2 2 3 4 6 5 3 3 4 4 3 3 3 7 3 4 3 2 5 4
2 0 4 5 2 5 5 4 6 4 6 13 12 12 8 9 8 7 9 7 7 7 7 7 6 5 5 3 2 3 2 4 4 5 6 4 3 3 3 3 4 4 3 5 4 3 4 5 5
4 5 6 10 15 11 13 8 8 9 9 8 9 8 7 7 9 8 10 11 9 7 6 6 5 4 4 3 3 3 3 3 4 4 6 5 5 5 4 5 4 5 3 4 4 4 4 5 6
4 8 10 8 9 8 14 10 6 5 8 9 10 9 9 10 13 7 4 7 7 6 7 6 5 4 3 4 4 3 3 4 3 4 4 7 5 5 5 4 4 5 5 5 5 6 5 6 5
5 5 5 4 6 5 15 4 5 13 13 12 9 8 8 10 10 9 8 8 7 4 7 8 7 7 7 6 4 4 4 3 4 4 5 6 7 7 6 5 5 5 5 6 5 5 4 4 5
3 5 3 4 7 7 3 2 5 11 13 12 10 9 10 9 9 7 6 6 7 7 9 9 6 8 8 6 5 4 3 3 4 4 4 6 6 6 6 5 6 6 5 4 4 5 4 5 5
2 4 4 3 7 7 2 4 9 12 12 10 9 11 11 8 6 7 8 10 9 9 9 8 8 9 7 2 3 2 3 4 5 4 4 7 4 4 4 6 4 4 4 3 3 3 3 3 3
6 4 3 7 8 5 5 5 10 14 10 10 9 10 9 9 8 7 9 8 9 9 6 2 3 3 2 1 2 3 3 3 4 4 5 6 5 6 2 4 4 3 3 4 4 5 2 4 4
4 4 4 5 5 6 9 8 14 9 9 9 7 8 9 11 6 7 8 7 6 6 7 7 8 8 4 3 3 3 3 3 4 6 9 7 5 6 6 4 5 4 3 4 4 3 6 4 4
8 8 5 2 1 5 7 8 6 8 9 11 10 8 10 6 7 3 5 8 8 8 8 8 8 7 5 3 2 3 1 2 3 4 6 7 9 10 9 8 7 7 5 7 6 3 2 3 5
3 5 5 4 1 4 8 3 4 6 4 6 7 8 8 10 8 7 8 7 8 8 8 8 8 8 7 7 3 2 2 2 3 5 3 5 7 8 7 7 5 5 4 4 5 6 6 3 4
3 2 4 9 5 4 6 5 10 8 6 10 10 9 9 9 7 7 9 7 8 5 6 8 9 8 8 6 6 7 3 2 3 3 3 4 5 5 5 5 4 5 3 4 3 4 3 4 4
4 3 5 4 3 2 3 0 5 9 8 11 10 12 9 8 9 10 9 8 6 6 7 7 8 7 6 7 7 4 3 1 2 2 4 3 3 3 2 3 3 3 3 4 5 4 3 2 2
2 3 8 4 3 1 5 8 4 8 14 14 12 13 10 9 9 9 7 7 6 5 6 7 8 7 7 7 6 6 4 3 3 3 3 4 3 4 4 5 3 4 4 3 4 5 5 5 4
5 6 4 4 4 7 5 4 1 10 6 3 16 10 7 8 8 7 8 7 6 6 6 7 7 7 6 5 5 6 6 5 4 4 3 5 4 3 5 5 5 4 4 5 4 5 5 5 4
5 7 7 6 4 6 4 1 0 7 12 11 8 7 8 7 7 8 7 7 7 7 7 7 7 6 5 4 4 4 5 3 4 2 3 4 3 4 5 6 6 6 6 5 4 3 4 5 4
1 2 5 2 2 2 2 3 3 5 10 16 11 9 8 7 7 7 6 6 7 7 6 6 7 5 3 2 2 2 3 5 5 6 4 3 6 4 6 6 6 6 6 5 5 4 5 5 5
3 3 4 3 1 2 2 2 4 9 8 9 5 5 6 6 6 6 5 6 5 6 5 6 6 4 2 0 2 2 5 6 6 6 6 6 6 5 6 6 6 5 6 6 5 4 5 5 4
6 6 5 4 3 5 2 3 4 10 9 11 8 6 7 7 6 5 5 5 7 6 5 5 3 1 1 2 3 5 6 7 6 6 6 6 5 6 6 6 6 6 6 6 6 6 6 6 6
9 5 4 5 6 2 0 2 2 9 5 5 6 6 5 6 6 5 4 4 6 6 5 3 1 1 3 5 5 6 7 7 7 6 6 5 6 6 6 6 6 6 6 6 6 6 6 7 8
Wind_Direction
174 167 118 49 43 66 258 273 209 173 76 15 73 97 97 49 28 110 114 118 117 105 103 98 99 99 98 95 90 98 99 96 91 83 83 77 75 62 48 41 39 43 42 44 58 81 122 82 98
216 159 41 78 84 39 289 274 78 129 140 139 93 99 66 77 57 109 118 126 113 107 96 95 105 108 108 107 106 103 96 97 94 91 90 82 85 66 51 41 40 42 44 42 58 89 73 53 40
235 79 87 111 119 189 229 45 116 95 148 143 102 40 61 83 116 99 127 133 116 111 116 116 116 113 111 108 108 101 95 91 90 89 83 80 89 74 50 40 39 43 49 43 60 64 65 42 28
89 12 18 83 255 260 227 149 128 131 68 56 108 73 82 357 117 133 130 122 116 113 112 116 119 121 120 119 118 115 107 103 103 95 89 92 80 69 55 38 39 40 44 54 61 58 56 32 25
42 68 43 3 251 278 27 167 178 84 97 77 102 102 85 47 110 125 137 128 129 133 135 131 134 132 129 124 126 119 113 100 107 105 105 94 83 105 97 74 48 43 44 48 46 63 50 40 1
15 90 67 264 293 33 359 92 92 93 106 118 93 99 89 138 126 140 144 144 154 145 122 144 144 140 133 133 135 137 141 140 132 132 123 114 108 109 95 89 66 58 62 57 33 11 7 16 5
129 81 239 258 254 54 225 304 61 79 106 74 129 102 129 153 141 138 153 140 116 127 137 146 144 146 145 150 157 153 151 160 159 160 162 148 144 141 127 117 102 51 58 40 11 345 347 357 6
139 119 273 273 267 136 324 55 73 27 51 75 144 145 163 154 145 145 131 124 133 141 151 159 154 144 167 179 182 188 189 182 182 188 195 197 196 201 198 187 193 200 239 304 330 333 339 350 359
122 43 295 295 113 132 277 157 37 56 71 48 341 118 129 142 134 123 112 114 137 151 175 176 176 181 196 212 215 212 218 213 210 209 210 206 169 234 242 208 221 214 225 254 288 303 320 332 354
108 134 193 234 145 139 60 67 122 77 56 73 86 100 125 137 126 134 142 156 177 182 193 193 193 196 199 218 211 213 245 282 258 252 245 238 214 227 223 236 225 218 230 251 257 285 307 325 336
175 168 182 43 135 128 102 58 62 125 55 137 139 134 136 139 143 152 170 177 185 197 193 194 207 193 212 228 209 211 214 237 244 244 247 231 245 246 246 224 261 242 242 248 286 289 293 300 316
101 265 146 128 151 109 94 86 61 34 121 133 140 142 149 153 173 180 179 182 171 175 174 170 188 187 165 157 140 174 193 220 233 230 229 218 227 230 222 226 243 247 239 234 243 246 246 252 263
84 122 54 95 80 77 97 71 112 95 120 134 145 153 161 158 187 180 177 169 172 171 146 166 172 186 178 162 175 193 213 222 249 220 226 188 224 219 192 215 221 228 223 232 241 241 240 242 223
141 115 138 119 122 135 111 140 94 184 151 155 163 182 189 196 163 146 143 173 170 146 166 157 174 188 187 214 227 244 257 258 244 215 220 217 212 228 227 223 216 221 207 216 219 228 223 234 210
135 101 89 166 157 117 133 64 126 164 166 171 188 191 201 165 144 166 176 183 161 166 151 181 186 191 212 237 240 226 234 241 251 263 243 219 223 233 231 226 236 226 213 217 222 220 212 224 238
186 96 150 225 155 165 119 155 189 174 171 188 194 198 146 126 142 168 176 178 163 152 173 192 189 198 212 225 233 247 283 293 292 299 301 286 283 272 269 237 236 234 235 219 210 218 231 206 190
299 216 182 243 212 134 147 148 200 185 190 191 190 150 138 143 161 155 146 148 163 173 183 202 198 206 216 299 345 309 272 276 273 273 282 288 282 253 239 244 254 320 296 267 255 275 234 261 244
221 227 161 207 211 120 154 191 179 184 185 186 176 163 147 159 176 163 163 173 174 186 191 13 39 0 11 264 277 283 302 314 308 337 8 359 8 359 299 268 276 199 250 263 268 242 243 239 233
236 254 222 239 204 134 182 156 185 180 179 177 185 165 158 172 190 183 192 165 117 55 77 67 73 28 45 23 355 26 7 355 27 27 22 24 12 3 31 23 11 5 325 272 252 222 222 234 200
244 264 262 58 304 102 163 181 202 175 181 177 176 161 169 134 171 180 86 75 76 93 81 73 76 73 61 66 33 60 334 21 79 23 23 13 15 18 36 23 19 11 2 357 334 270 250 236 195
189 193 167 167 121 58 108 335 228 233 139 131 162 144 146 146 128 125 93 91 87 82 83 80 84 68 53 50 50 32 41 20 8 12 25 22 23 28 38 30 23 16 16 11 350 1 338 279 250
180 334 134 132 108 217 177 249 206 199 169 148 142 124 118 129 120 108 108 99 102 110 101 85 77 76 65 60 69 67 73 2 339 341 358 10 25 31 38 24 3 359 350 360 344 353 338 352 322
185 138 126 147 169 158 221 164 247 183 191 169 141 134 130 133 119 116 119 124 106 95 88 96 95 86 75 63 70 86 71 346 302 329 1 354 349 344 337 315 307 306 307 314 316 319 301 266 270
113 59 32 48 110 7 229 158 279 199 198 159 139 126 137 122 108 102 106 109 106 102 93 105 92 75 64 55 46 48 36 345 331 302 323 316 317 308 304 307 269 255 261 265 282 279 279 278 242
74 60 352 349 359 226 294 89 137 339 105 29 119 113 103 98 102 108 105 110 107 89 91 89 85 77 66 59 46 31 16 349 327 342 329 330 314 313 306 314 313 295 271 270 271 264 261 262 269
172 159 157 203 214 249 305 102 335 80 74 70 55 130 104 96 107 108 117 125 108 106 94 86 89 85 61 49 42 42 11 330 301 308 287 287 295 290 290 297 297 289 283 276 286 280 271 264 265
278 167 203 167 25 75 164 67 346 152 148 155 145 126 121 111 110 121 123 123 122 116 106 99 102 100 86 58 17 7 320 307 290 295 290 288 282 277 286 295 294 296 287 272 267 262 266 254 273
168 188 21 0 98 252 295 182 230 196 127 62 54 122 118 117 114 110 111 114 122 120 114 103 120 135 184 217 353 284 288 296 282 283 284 278 281 280 287 295 296 306 306 298 282 269 255 253 264
355 17 10 113 101 176 183 253 221 132 143 188 146 140 148 120 114 106 98 95 136 121 122 122 121 125 314 319 274 281 281 282 280 271 270 270 277 290 297 289 285 291 286 283 283 272 260 244 248
88 77 96 82 288 152 213 201 80 143 105 18 146 133 120 123 113 101 104 105 138 132 127 138 162 252 270 273 295 297 279 281 276 269 259 286 288 286 282 279 283 280 275 273 268 263 263 245 245